Hourly Data Report for April 21, 2017

All times are specified in Local Standard Time (LST). Add 1 hour to adjust for Daylight Saving Time where and when it is observed.

TORONTO CITY
ONTARIO

43°40'00.000" N
79°24'00.000" W
112.50 m
6158355
71508
XTO

Download Data

Hourly Data (April 2017)
Hourly Data Report for April 21, 2017
TIME Temp Definition
°C
Dew Point Definition
°C
Rel Hum Definition
%
Wind Dir Definition
10's deg

Wind Spd Definition
km/h
Visibility Definition
km
Stn Press Definition
kPa
Hmdx Definition


Wind Chill Definition


Weather Definition


00:00 5.9 5.0 94 LegendMM LegendMM   99.48     LegendNANA
01:00 6.0 5.2 94 LegendMM LegendMM   99.47     LegendNANA
02:00 6.1 5.4 95 LegendMM LegendMM   99.45     LegendNANA
03:00 6.5 5.8 96 LegendMM LegendMM   99.47     LegendNANA
04:00 6.8 6.2 96 LegendMM LegendMM   99.45     LegendNANA
05:00 7.0 6.3 95 LegendMM LegendMM   99.48     LegendNANA
06:00 7.0 6.2 95 LegendMM LegendMM   99.54     LegendNANA
07:00 7.8 6.5 91 LegendMM LegendMM   99.57     LegendNANA
08:00 8.3 6.8 90 LegendMM LegendMM   99.59     LegendNANA
09:00 8.8 6.9 88 LegendMM LegendMM   99.62     LegendNANA
10:00 9.7 7.3 85 LegendMM LegendMM   99.63     LegendNANA
11:00 10.4 7.5 82 LegendMM LegendMM   99.67     LegendNANA
12:00 12.2 6.1 67 LegendMM LegendMM   99.68     LegendNANA
13:00 13.5 4.8 55 LegendMM LegendMM   99.68     LegendNANA
14:00 14.0 5.1 55 LegendMM LegendMM   99.73     LegendNANA
15:00 12.9 3.8 54 LegendMM LegendMM   99.71     LegendNANA
16:00 12.5 3.2 53 LegendMM LegendMM   99.81     LegendNANA
17:00 11.4 2.6 55 LegendMM LegendMM   99.92     LegendNANA
18:00 10.1 2.4 59 LegendMM LegendMM   100.00     LegendNANA
19:00 8.9 2.0 62 LegendMM LegendMM   100.06     LegendNANA
20:00 8.1 1.9 65 LegendMM LegendMM   100.13     LegendNANA
21:00 7.3 1.4 66 LegendMM LegendMM   100.20     LegendNANA
22:00 7.3 1.6 67 LegendMM LegendMM   100.18     LegendNANA
23:00 7.3 1.8 68 LegendMM LegendMM   100.23     LegendNANA

Notes on Data Quality.

Legend

  • E = Estimated
  • M = Missing
  • NA = Not Available
Date modified: